Vertical_Velocity
1 1 0 0 1 1 2 2 1 -0 0 -0 0 -0 1 -0 1 1 1 -0 0 1 2 1 1 0 1 -1 1 1 0 -3 -2 -3 -3 -0 -0 -1 -3 -2 -1 -2 -3
2 2 0 0 1 1 1 2 1 1 1 -1 -1 -1 0 1 -0 0 -0 -0 0 0 0 -0 0 -1 1 0 -0 2 0 -0 0 0 -1 -1 -2 -3 -2 -0 -1 -1 1
1 1 1 0 0 0 0 -0 0 1 1 1 -1 -0 -0 1 -0 -0 0 1 1 -1 -1 -1 -0 -1 -1 -1 -0 1 1 2 2 -1 1 0 0 -1 -1 -1 -0 -0 0
0 0 1 -0 0 0 0 0 1 1 0 0 -1 -1 -0 0 0 0 0 2 -0 1 -1 -0 -0 1 -0 -1 -0 1 -2 -1 -2 2 -1 2 3 -1 3 0 1 -0 -2
2 1 0 0 0 -0 0 0 0 1 0 -0 -0 -1 -1 -2 -1 -1 -0 1 1 0 -1 -3 0 0 1 -0 -2 1 1 0 -0 -1 -2 -2 -1 2 1 4 -1 3 1
1 -0 -0 -1 -1 -1 -1 -1 -0 -0 0 0 -0 -1 -1 -2 -2 -2 -1 -0 1 2 2 -1 -3 0 1 0 -0 -1 0 0 2 -1 -1 -1 -1 3 -1 -2 3 -3 -3
-1 0 1 0 -0 -1 -1 -1 -1 -1 -0 -0 -1 -1 -1 -1 -1 -2 -2 -1 -1 -0 1 1 0 -2 1 1 -0 -1 -1 1 0 0 1 0 -2 -1 -0 -4 6 2 -0
1 1 -0 -0 -1 -0 1 1 -1 -2 -2 -1 -1 -1 -1 -2 -1 -1 -1 -2 -3 -3 -1 -0 0 0 -1 -1 0 -0 -0 -1 1 -0 0 1 1 -2 -1 -3 -2 0 6
-0 0 0 0 -0 -1 -1 -1 -0 1 1 0 -1 -2 -2 -1 -2 -2 -2 -2 -1 -2 -2 -1 -1 0 0 0 -1 -1 -0 -0 -0 -2 1 3 0 0 -0 -1 -3 -5 8
1 1 -0 1 1 0 0 1 0 -1 -0 -1 -0 -0 -0 -1 -1 -2 -2 -1 -1 -1 -2 -2 -1 -2 -1 -1 0 -0 1 -1 -2 -1 -1 -1 1 2 -0 -2 -2 -4 -7
0 0 0 0 -0 -0 -0 -0 0 -0 -1 -1 -1 -1 -1 0 -0 -1 -1 -2 -1 -1 -1 -1 -2 -1 -2 -1 -0 -2 -3 0 -0 -2 -1 -0 -1 1 2 -1 -1 -1 -6
-0 -1 -1 -1 -1 -1 -1 -2 -2 -2 -0 -0 -1 -1 -0 -1 -1 -1 -2 -1 -2 -1 -1 -1 -1 -1 -1 -2 -1 -0 -1 -0 -2 -1 0 0 -1 -1 -1 -1 1 -3 -2
-2 -1 -0 -0 -1 -1 -1 0 0 -1 -1 -2 -3 -2 -1 -1 -1 -1 -0 -0 -0 -0 -1 1 0 -1 -0 -1 -3 1 -2 -1 2 1 -1 -1 -2 0 0 0 1 1 0
1 -1 -1 -0 -1 -1 -2 -2 -1 -1 -1 -1 -1 -1 -2 -3 -2 -2 -1 -1 -1 -1 -1 -1 -1 0 1 1 -1 -3 -2 2 2 1 -1 0 -1 0 -3 -2 -2 1 3
2 2 1 -0 -1 -1 -1 -2 -2 -2 -2 -2 -2 -3 -3 -3 -2 -2 -4 -4 -3 -3 -2 -1 -3 -2 1 -0 -3 -4 0 -1 2 1 -0 -3 -0 -0 1 -0 1 1 -3
-1 -1 -1 -2 -1 -1 -2 -3 -4 -4 -2 -3 -3 -3 -3 -4 -3 -2 -3 -3 -3 -3 -3 -4 -1 -3 -2 -3 -4 -2 -5 -3 2 3 -2 -2 -1 -2 -0 -3 -0 4 -1
-1 -2 -2 -3 -2 -1 1 -3 -3 -3 -2 -2 -2 -3 -3 -4 -4 -4 -3 -4 -3 -2 -4 -4 -4 -2 -2 -2 -3 -3 -7 0 -1 1 3 3 -3 -4 -2 0 -1 -2 -1
-0 -1 -1 -4 -4 -3 -1 -2 -3 -4 -3 -4 -3 -4 -3 -3 -4 -4 -4 -4 -2 -2 -2 -2 -3 -2 -2 -3 -4 -4 -4 -0 -1 -0 1 1 7 -2 -1 1 -2 -5 1
-3 -3 -2 -3 -5 -4 -3 -3 -7 -3 -2 -4 -4 -5 -6 -4 -5 -5 -4 -6 -3 -4 -4 -4 -2 -3 -1 -3 -3 -7 -8 -4 -1 -2 1 -2 -1 7 -3 -6 1 3 4
-1 -2 -2 -3 -1 -4 -1 -3 -5 -6 -3 -5 -3 -4 -4 -4 -2 -4 -3 -4 -6 -3 -5 -5 -5 -5 -0 -3 -2 -4 -3 -1 -3 -7 -5 -2 -2 3 2 -6 -7 -3 11
-5 -2 -3 -4 -5 -3 -1 -4 -3 -2 -2 -2 -3 -4 -5 -5 -4 -2 -3 -4 -3 -5 -4 -3 -3 -4 -5 -1 -2 -2 -5 -4 -2 -3 -0 -3 -2 -0 2 -0 -5 -2 8
-4 -3 -1 -4 -5 -3 -1 -1 -4 -2 -3 -1 -1 -1 -3 -4 -4 -4 -2 -5 -4 -3 -3 -2 -1 -3 -4 -5 -1 -1 -4 -3 -7 -2 1 -1 -1 -4 -0 -0 0 -0 2
-3 -4 -2 -3 -8 -7 -7 -2 -4 -4 -3 -3 -4 -5 -4 -4 -3 -4 -3 -2 -5 -6 0 -3 -2 1 -3 -2 -5 -2 -3 -3 -4 -2 -3 -1 -1 -4 -4 -3 5 2 7
-4 -3 -4 -3 2 -7 -6 -8 -3 -4 -1 0 0 -5 -5 -5 -4 -5 -5 -4 -5 -4 -3 -4 -4 -1 0 -2 -0 -0 -2 -5 -4 -5 -4 -6 -1 4 1 -2 -1 0 3
-5 -3 -2 -0 1 -4 -2 -5 -9 -7 2 0 -1 -4 -3 -1 -3 -5 -4 -3 -4 -4 -2 -3 -5 -6 -0 -2 -2 -2 -2 -3 -2 -13 -3 2 -1 -3 -1 -2 -2 -1 -0
-6 -2 -3 -2 -2 -3 1 -0 -9 -6 -2 -1 -3 -5 -1 1 -1 -2 2 -7 -6 -1 -3 -3 -3 -1 -4 0 -0 -1 0 -1 2 -13 3 0 -2 -3 -2 -1 -1 -3 -0
Height
5764 5766 5769 5771 5774 5776 5778 5779 5781 5782 5783 5784 5786 5787 5788 5789 5791 5792 5793 5794 5795 5796 5797 5798 5798 5799 5800 5800 5802 5802 5803 5802 5803 5803 5804 5806 5807 5808 5809 5810 5812 5812 5812
5757 5760 5763 5765 5767 5769 5771 5773 5774 5775 5776 5778 5779 5780 5782 5783 5784 5785 5787 5787 5788 5789 5790 5791 5791 5791 5792 5793 5793 5795 5795 5795 5795 5796 5796 5797 5798 5798 5799 5801 5802 5804 5805
5751 5753 5756 5758 5760 5762 5764 5766 5767 5768 5769 5771 5771 5773 5774 5775 5777 5778 5779 5780 5780 5781 5781 5782 5783 5783 5784 5785 5785 5786 5787 5788 5787 5787 5788 5789 5790 5790 5790 5791 5793 5794 5795
5744 5747 5749 5750 5753 5755 5756 5758 5759 5760 5761 5762 5763 5764 5765 5766 5767 5769 5770 5771 5771 5772 5772 5772 5773 5774 5774 5775 5776 5777 5777 5778 5778 5779 5780 5780 5781 5781 5782 5782 5783 5784 5785
5737 5739 5741 5742 5744 5746 5747 5749 5750 5751 5752 5753 5753 5754 5755 5755 5756 5758 5759 5760 5761 5762 5762 5762 5763 5763 5764 5765 5765 5766 5767 5767 5768 5768 5768 5768 5769 5771 5772 5773 5773 5774 5775
5728 5730 5732 5733 5735 5736 5737 5739 5739 5740 5741 5742 5742 5743 5744 5744 5745 5746 5746 5747 5748 5750 5750 5750 5750 5751 5752 5753 5753 5753 5754 5755 5756 5756 5756 5757 5757 5758 5758 5760 5762 5762 5764
5720 5721 5722 5723 5724 5726 5727 5728 5729 5729 5730 5730 5730 5731 5731 5731 5732 5733 5733 5734 5734 5735 5736 5737 5737 5736 5737 5738 5739 5739 5740 5741 5742 5743 5742 5742 5743 5744 5744 5745 5748 5750 5751
5710 5711 5712 5713 5714 5714 5715 5716 5717 5717 5718 5718 5718 5718 5718 5718 5718 5718 5718 5719 5719 5720 5721 5721 5722 5722 5722 5722 5723 5724 5724 5725 5726 5727 5728 5728 5728 5728 5729 5730 5731 5735 5738
5699 5700 5701 5701 5702 5703 5703 5703 5704 5704 5704 5704 5704 5704 5704 5704 5703 5703 5703 5703 5703 5703 5703 5703 5704 5705 5705 5705 5705 5706 5707 5707 5708 5709 5710 5712 5712 5712 5712 5713 5714 5715 5720
5687 5688 5688 5689 5689 5690 5690 5690 5690 5690 5690 5689 5689 5689 5688 5688 5687 5687 5686 5686 5686 5685 5685 5685 5685 5685 5685 5685 5686 5686 5687 5687 5687 5688 5690 5691 5693 5694 5694 5695 5695 5696 5698
5675 5675 5676 5676 5676 5676 5676 5676 5675 5674 5674 5673 5672 5671 5671 5670 5669 5669 5668 5667 5667 5666 5666 5665 5665 5664 5664 5664 5664 5664 5664 5665 5665 5666 5667 5668 5669 5671 5673 5674 5675 5676 5677
5661 5662 5662 5662 5661 5661 5660 5660 5659 5658 5657 5656 5654 5653 5652 5651 5650 5649 5648 5647 5647 5646 5645 5644 5644 5643 5642 5642 5642 5642 5642 5642 5642 5642 5644 5645 5645 5647 5648 5650 5652 5653 5655
5648 5647 5647 5646 5646 5645 5644 5643 5642 5640 5639 5637 5636 5634 5632 5631 5629 5628 5627 5626 5625 5624 5622 5622 5621 5620 5619 5618 5618 5618 5618 5619 5619 5619 5619 5620 5621 5623 5624 5625 5627 5629 5631
5634 5634 5633 5632 5630 5629 5627 5626 5624 5623 5620 5618 5616 5614 5612 5609 5607 5605 5604 5602 5601 5599 5598 5596 5595 5595 5594 5592 5592 5592 5593 5594 5594 5594 5593 5594 5595 5597 5597 5599 5601 5603 5606
5619 5618 5617 5616 5614 5613 5611 5609 5606 5604 5601 5598 5595 5592 5589 5586 5584 5581 5579 5576 5574 5572 5570 5569 5567 5566 5566 5563 5562 5563 5565 5566 5567 5565 5564 5565 5567 5568 5569 5571 5573 5574 5577
5605 5603 5600 5598 5595 5593 5590 5587 5584 5581 5578 5574 5570 5567 5564 5560 5557 5554 5551 5548 5545 5542 5540 5538 5537 5535 5534 5531 5530 5530 5532 5535 5536 5534 5533 5534 5535 5536 5538 5540 5542 5544 5546
5591 5587 5584 5580 5577 5573 5570 5565 5561 5558 5553 5549 5544 5540 5536 5532 5529 5525 5521 5518 5514 5511 5507 5504 5502 5500 5497 5495 5494 5493 5494 5498 5498 5498 5499 5499 5499 5500 5504 5506 5508 5510 5512
5574 5570 5566 5561 5557 5553 5548 5542 5538 5533 5528 5522 5516 5511 5506 5502 5497 5492 5488 5484 5480 5476 5472 5469 5466 5464 5461 5457 5455 5454 5455 5457 5458 5457 5457 5459 5461 5461 5464 5466 5469 5473 5477
5556 5551 5547 5541 5536 5531 5525 5519 5513 5507 5501 5494 5488 5481 5476 5470 5464 5459 5453 5448 5445 5440 5436 5432 5429 5425 5424 5421 5418 5415 5415 5416 5416 5416 5417 5419 5422 5422 5422 5423 5429 5435 5438
5538 5532 5527 5520 5514 5508 5502 5494 5487 5481 5475 5468 5460 5452 5446 5441 5435 5429 5423 5418 5413 5409 5403 5399 5394 5390 5389 5386 5383 5379 5379 5380 5380 5378 5378 5381 5384 5386 5386 5385 5389 5396 5400
5518 5512 5505 5497 5491 5484 5477 5468 5461 5456 5449 5443 5435 5427 5420 5415 5409 5403 5396 5390 5385 5380 5375 5370 5365 5359 5356 5354 5350 5346 5343 5342 5343 5344 5345 5346 5345 5347 5349 5349 5351 5359 5363
5494 5489 5481 5472 5465 5459 5454 5446 5438 5432 5427 5420 5412 5403 5396 5389 5384 5378 5370 5364 5358 5353 5348 5343 5338 5332 5328 5324 5321 5317 5312 5310 5309 5311 5312 5313 5311 5311 5313 5314 5318 5321 5322
5473 5467 5460 5452 5442 5437 5432 5426 5417 5411 5406 5398 5389 5380 5372 5365 5357 5351 5345 5339 5332 5327 5322 5317 5314 5309 5303 5299 5294 5290 5286 5283 5282 5282 5282 5282 5281 5283 5283 5282 5284 5285 5289
5454 5448 5441 5433 5424 5416 5409 5402 5396 5389 5384 5375 5364 5354 5347 5340 5332 5325 5318 5313 5307 5303 5298 5294 5290 5286 5282 5277 5273 5268 5262 5259 5257 5255 5255 5257 5257 5257 5255 5254 5254 5256 5258
5436 5430 5423 5416 5407 5398 5389 5379 5371 5365 5359 5350 5340 5330 5323 5316 5309 5303 5296 5290 5285 5281 5277 5272 5268 5264 5261 5256 5251 5246 5242 5238 5234 5229 5234 5233 5232 5231 5228 5227 5227 5228 5229
5420 5413 5405 5397 5389 5379 5369 5357 5347 5341 5334 5325 5315 5306 5301 5295 5289 5283 5278 5269 5265 5261 5257 5252 5248 5245 5240 5237 5232 5227 5223 5218 5213 5209 5211 5209 5206 5204 5203 5203 5202 5203 5204